Date,TemperatureHighF,TemperatureAvgF,TemperatureLowF,DewpointHighF,DewpointAvgF,DewpointLowF,HumidityHigh,HumidityAvg,HumidityLow,PressureMaxIn,PressureMinIn,WindSpeedMaxMPH,WindSpeedAvgMPH,GustSpeedMaxMPH,PrecipitationSumIn
2013-6-1,92.6,75.8,62.0,77.5,69.5,62.0,100,83,53,30.10,29.92,8,2,12,0.00
2013-6-2,81.0,71.9,64.2,67.7,64.2,61.0,100,78,56,29.94,29.88,11,3,19,0.00
2013-6-3,76.5,67.5,55.1,65.3,59.7,51.4,94,77,54,30.09,29.92,9,3,13,0.03
2013-6-4,79.8,62.2,45.3,53.9,48.3,43.1,95,65,32,30.23,30.08,6,2,10,0.00
2013-6-5,78.7,63.8,47.3,61.0,53.9,45.1,94,72,51,30.25,30.06,7,2,11,0.00
2013-6-6,66.4,63.6,62.5,61.9,60.2,58.4,95,89,78,30.08,29.91,5,2,13,0.68
2013-6-7,69.4,65.0,62.5,67.0,62.8,60.1,96,93,87,29.91,29.75,8,1,15,0.16
2013-6-8,80.8,67.2,59.0,64.0,58.8,56.4,93,77,47,30.19,29.86,8,2,14,0.00
2013-6-9,80.8,68.4,56.8,68.0,61.8,55.0,95,80,60,30.26,30.13,7,2,13,0.00
2013-6-10,77.7,69.1,61.0,72.1,66.0,59.0,96,90,74,30.14,29.85,8,1,13,0.61
2013-6-11,79.0,71.1,61.2,66.8,63.0,59.5,95,76,61,29.95,29.87,14,5,25,0.00
2013-6-12,87.8,76.5,64.6,72.0,66.2,61.3,92,72,49,29.96,29.84,8,3,17,0.00
2013-6-13,75.8,68.0,63.5,69.4,63.5,55.3,95,86,70,29.85,29.60,13,6,29,0.63
2013-6-14,78.0,67.4,58.3,57.8,54.2,51.2,85,64,42,30.10,29.78,11,4,19,0.00
2013-6-15,82.6,67.0,51.6,60.8,52.8,44.0,95,66,28,30.19,30.08,9,2,15,0.00
2013-6-16,82.4,70.0,59.7,68.6,61.0,55.2,91,74,56,30.13,29.96,15,4,31,0.00
2013-6-17,86.9,74.3,64.3,70.2,64.6,61.1,91,73,48,30.03,29.94,8,3,12,0.06
2013-6-18,75.6,68.8,62.9,68.5,64.7,60.5,94,87,74,30.00,29.88,9,1,15,0.17
2013-6-19,79.0,67.1,59.9,63.6,60.3,56.6,95,80,52,30.22,29.98,6,2,10,0.34
2013-6-20,85.3,70.0,57.7,68.4,61.9,55.8,95,78,46,30.31,30.22,7,2,12,0.00
2013-6-21,87.5,73.1,60.8,69.6,64.2,58.6,95,76,47,30.34,30.24,6,2,9,0.00
2013-6-22,90.6,74.5,60.5,73.0,65.5,58.5,95,76,46,30.29,30.15,5,2,9,0.00
2013-6-23,91.1,74.0,60.6,73.1,65.5,58.9,95,77,42,30.25,30.11,7,1,11,0.00
2013-6-24,93.0,76.1,63.0,73.7,67.2,60.9,95,76,43,30.22,30.08,8,2,13,0.00
2013-6-25,93.8,78.5,64.4,72.3,66.9,62.0,95,71,40,30.13,29.96,14,3,23,0.00
2013-6-26,85.4,74.4,66.3,73.6,67.0,63.0,92,79,55,30.01,29.89,11,2,20,0.13
2013-6-27,80.2,69.9,64.4,73.2,67.6,62.6,100,93,73,29.91,29.71,9,2,17,0.49
2013-6-28,84.5,71.7,63.5,74.1,67.7,62.1,99,88,66,29.71,29.56,18,4,27,0.13
2013-6-29,86.8,72.0,60.7,70.7,64.8,59.9,100,80,48,29.78,29.60,9,3,17,0.00
2013-6-30,88.4,71.6,59.0,73.6,66.3,58.7,100,85,55,29.94,29.78,10,2,19,0.77